Location: Banska Bystrica
(48.7330°N, 19.1500°E)
Time: 15:44:05
(UTC+02:00)

ISS - Pass Details

Date: 26 March 2019
Orbit: 408 x 410 km, 51.6° (Epoch: 25 April)

Event Time Altitude Azimuth Distance (km) Brightness Sun altitude
Rises 19:23:08 0° 255° (WSW) 2,331 1.0 -13.5°
Reaches altitude 10° 19:25:14 10° 258° (WSW) 1,471 -0.1 -13.8°
Maximum altitude 19:28:31 72° 343° (NNW) 434 -3.7 -14.3°
Enters shadow 19:30:31 22° 65° (ENE) 959 -2.3 -14.6°
